Location: Kelowna
(49.8880°N, 119.4960°W)
Time: 16:07:04
(UTC-07:00)

TIGRISAT - Pass Details

Date: 28 April 2024
Orbit: 594 x 672 km, 97.7° (Epoch: 27 May)

Event Time Altitude Azimuth Distance (km) Brightness Sun altitude
Rises 04:30:31 0° 157° (SSE) 2,900 ? -10.3°
Reaches altitude 10° 04:32:44 10° 155° (SSE) 1,985 ? -10.0°
Maximum altitude 04:37:00 66° 73° (ENE) 670 ? -9.5°
Drops below altitude 10° 04:41:13 10° 352° (N) 1,961 ? -8.9°
Sets 04:43:24 0° 349° (N) 2,862 ? -8.6°
